[[{"header":{"parameterUnit":"m.s-1","parameterCategory":2,"la1":30.2991,"la2":30.254,"lo1":-89.0895,"lo2":-89.0444,"dy":0.0017,"dx":0.0017,"nx":28,"ny":28,"refTime":"2024-03-13T09:00:00:Z","depth":"0","parameterNumber":2,"parameterNumberName":"U-component_of_CURRENTS"},"data":[0,0,0,0,0,0,0,0,0,0,0,0,0,0,0,0,0,0,0,0,0,0,0,0,0,0,0,0,0,0,0,0,0,0,0,0,0,0,0,0,0,0,0,0,0,0,0,0,0,0,0,0,0,0,0,0,0,0,-0.2546,-0.2547,0,-0.2617,-0.2617,-0.2618,-0.2589,-0.2588,-0.2586,-0.2585,-0.2553,-0.2553,-0.2554,0,0,0,0,0,0,0,0,0,0,0,0,0,-0.2369,-0.2372,-0.2546,-0.2548,-0.2549,-0.2617,-0.2617,-0.2618,-0.2589,-0.2588,-0.2586,-0.2585,-0.2553,-0.2553,-0.2554,0,0,0,0,0,0,0,0,0,0,0,0,0,-0.2438,-0.2373,-0.2546,-0.2547,-0.2548,-0.2617,-0.2617,-0.2618,-0.2589,-0.2588,-0.2586,-0.2584,-0.2553,-0.2553,-0.2554,-0.2592,0,0,-0.2555,-0.2555,0,0,0,0,0,0,0,0,-0.2434,-0.2444,-0.2545,-0.2547,-0.2548,-0.2597,-0.2543,-0.2606,-0.259,-0.2568,-0.2585,-0.2583,-0.2563,-0.2563,-0.2574,-0.259,-0.2589,-0.2555,-0.2555,-0.2555,-0.2555,0,0,0,0,0,0,0,-0.2429,-0.2441,-0.2569,-0.2547,-0.2549,-0.2538,-0.2545,-0.2555,-0.2569,-0.257,-0.2569,-0.2586,-0.2562,-0.2573,-0.2572,-0.2588,-0.2555,-0.2555,-0.2556,-0.2556,-0.2641,-0.2643,0,0,0,0,0,0,-0.2435,-0.2437,-0.2567,-0.2571,-0.2492,-0.2543,-0.2551,-0.2579,-0.2571,-0.257,-0.2588,-0.2585,-0.2574,-0.2572,-0.2571,-0.2621,-0.2555,-0.2556,-0.2556,-0.2639,-0.2641,-0.2643,0,0,0,0,0,0,-0.2431,-0.2447,-0.2564,-0.2509,-0.2523,-0.2549,-0.258,-0.2581,-0.2588,-0.2587,-0.2582,-0.2593,-0.2572,-0.2571,-0.2592,-0.2619,-0.2556,-0.2556,-0.2636,-0.2639,-0.2642,-0.2718,0,0,0,0,0,0,-0.2426,-0.2445,-0.2452,-0.251,-0.2527,-0.2611,-0.2582,-0.2584,-0.2605,-0.2601,-0.259,-0.2585,-0.2571,-0.2592,-0.2592,-0.2619,-0.2557,-0.2634,-0.2638,-0.2641,-0.2713,-0.2723,-0.2732,0,0,0,0,0,-0.242,-0.2443,-0.2453,-0.2468,-0.2542,-0.2613,-0.2621,-0.2627,-0.2607,-0.2623,-0.2618,-0.2585,-0.2616,-0.2594,-0.2594,-0.2621,-0.2632,-0.2637,-0.2641,-0.2708,-0.2721,-0.2731,0,0,0,0,0,0,-0.2358,-0.2445,-0.2456,-0.25,-0.2556,-0.261,-0.2625,-0.2633,-0.2645,-0.2634,-0.2615,-0.2612,-0.2639,-0.2627,-0.2604,-0.2659,-0.2618,-0.2622,-0.2669,-0.268,-0.269,-0.2649,-0.2557,0,0,0,0,0,-0.2356,-0.2397,-0.2476,-0.2508,-0.2542,-0.2583,-0.2606,-0.2623,-0.265,-0.2652,-0.2648,-0.2647,-0.2663,-0.2667,-0.2674,-0.2709,-0.2676,-0.2726,-0.2736,-0.2744,-0.2714,-0.2762,-0.2773,-0.2658,-0.2658,-0.2658,0,0,-0.2336,-0.2391,-0.241,-0.2498,-0.2538,-0.2585,-0.2591,-0.2643,-0.2662,-0.2648,-0.2661,-0.2678,-0.2679,-0.2717,-0.2728,-0.2707,-0.2751,-0.275,-0.2757,-0.272,-0.2768,-0.2779,-0.2788,-0.2661,-0.2661,-0.266,0,0,-0.2326,-0.2378,-0.2409,-0.2469,-0.2548,-0.2585,-0.2603,-0.2668,-0.2677,-0.2717,-0.2709,-0.2749,-0.2761,-0.2781,-0.2788,-0.2858,-0.28,-0.2859,-0.2875,-0.2925,-0.2934,-0.2942,-0.287,-0.2871,-0.2866,-0.2866,-0.2866,0,-0.2289,-0.2348,-0.2426,-0.2479,-0.2514,-0.2585,-0.2618,-0.2657,-0.2712,-0.272,-0.2724,-0.2779,-0.2792,-0.2838,-0.2861,-0.2878,-0.285,-0.2832,-0.2936,-0.2943,-0.295,-0.2875,-0.2875,-0.287,-0.287,-0.2869,-0.2869,0,-0.2312,-0.2355,-0.2386,-0.247,-0.2523,-0.2571,-0.2649,-0.2683,-0.2706,-0.274,-0.2794,-0.2842,-0.2862,-0.29,-0.2896,-0.2956,-0.2898,-0.2943,-0.2903,-0.2966,-0.2883,-0.2881,-0.2876,-0.2875,-0.2873,-0.2872,0,0,-0.2236,-0.2366,-0.2374,-0.24,-0.2521,-0.2561,-0.2615,-0.2676,-0.2686,-0.2769,-0.278,-0.287,-0.2895,-0.2904,-0.2938,-0.2993,-0.3019,-0.298,-0.2981,-0.2896,-0.3033,-0.2935,-0.2922,-0.3092,-0.3093,-0.3094,-0.2939,0,-0.2216,-0.228,-0.2361,-0.2408,-0.2448,-0.2535,-0.2575,-0.2643,-0.2691,-0.2724,-0.2812,-0.2841,-0.2899,-0.291,-0.2984,-0.3012,-0.3025,-0.3049,-0.2992,-0.2987,-0.2887,-0.2923,-0.2837,-0.2688,-0.2937,-0.2936,-0.2936,0,-0.2215,-0.2253,-0.2291,-0.2368,-0.2393,-0.2426,-0.2485,-0.2534,-0.262,-0.2657,-0.2732,-0.278,-0.2858,-0.2906,-0.2985,-0.2995,-0.2995,-0.3025,-0.3021,-0.2896,-0.2889,-0.2676,-0.2675,-0.2608,-0.2933,-0.2934,-0.2934,0,-0.2123,-0.2205,-0.2217,-0.2253,-0.2357,-0.2365,-0.2407,-0.2497,-0.2531,-0.2599,-0.262,-0.273,-0.2752,-0.2842,-0.2878,-0.2936,-0.2922,-0.3018,-0.2912,-0.29,-0.2792,-0.2769,-0.271,-0.3046,-0.3046,-0.3047,-0.3047,0,-0.2089,-0.2101,-0.2165,-0.218,-0.2183,-0.228,-0.2299,-0.2355,-0.2429,-0.2479,-0.2567,-0.2609,-0.2745,-0.2759,-0.2826,-0.2821,-0.2875,-0.2881,-0.2873,-0.281,-0.2792,-0.27,-0.273,-0.3041,-0.3042,-0.3043,-0.3044,0,-0.202,-0.2069,-0.2083,-0.2139,-0.2153,-0.2153,-0.2234,-0.226,-0.2324,-0.2382,-0.2397,-0.2488,-0.2533,-0.2592,-0.2674,-0.2708,-0.2685,-0.2707,-0.2549,-0.2528,-0.244,-0.2478,-0.2403,-0.2335,-0.2609,-0.2606,-0.2603,0,-0.1999,-0.1996,-0.2028,-0.2035,-0.2058,-0.2081,-0.2117,-0.2198,-0.2246,-0.2332,-0.2356,-0.2368,-0.2442,-0.2443,-0.2496,-0.2515,-0.2516,-0.2375,-0.2518,-0.2385,-0.2425,-0.2467,-0.2419,-0.2372,-0.2367,-0.2364,-0.2361,0,-0.1941,-0.1945,-0.1953,-0.1955,-0.1973,-0.2006,-0.2055,-0.2075,-0.2192,-0.2246,-0.232,-0.2366,-0.2377,-0.2399,-0.2333,-0.233,-0.2315,-0.2305,-0.2255,-0.2288,-0.2247,-0.2191,-0.2437,-0.233,-0.2333,-0.2336,-0.2337,-0.2339,-0.1883,-0.1864,-0.1868,-0.1866,-0.1895,-0.1918,-0.1903,-0.2003,-0.2062,-0.214,-0.2257,-0.2318,-0.2316,-0.2291,-0.2238,-0.2023,-0.2163,-0.1992,-0.2051,-0.2104,-0.205,-0.2158,-0.2015,-0.2016,-0.2017,-0.2018,-0.2019,0,-0.1799,-0.1789,-0.1787,-0.1778,-0.1776,-0.1816,-0.1858,-0.1844,-0.1897,-0.2042,-0.2136,-0.2213,-0.2156,-0.2081,-0.1928,-0.1823,-0.1795,-0.1697,-0.1755,-0.1725,-0.1872,-0.1872,-0.1587,-0.1587,-0.1587,-0.1587,-0.1587,-0.1587,-0.1756,-0.1715,-0.1709,-0.1659,-0.1655,-0.1609,-0.1602,-0.1609,-0.1674,-0.1761,-0.1857,-0.1988,-0.1934,-0.1971,-0.1746,-0.1616,-0.1577,-0.1518,-0.1528,-0.1652,-0.1685,-0.1716,-0.172,-0.1408,-0.1408,-0.1317,-0.1317,-0.1316]},{"header":{"parameterUnit":"m.s-1","parameterCategory":2,"la1":30.2991,"la2":30.254,"lo1":-89.0895,"lo2":-89.0444,"dy":0.0017,"dx":0.0017,"nx":28,"ny":28,"refTime":"2024-03-13T09:00:00:Z","depth":"0","parameterNumber":3,"parameterNumberName":"V-component_of_CURRENTS"},"data":[0,0,0,0,0,0,0,0,0,0,0,0,0,0,0,0,0,0,0,0,0,0,0,0,0,0,0,0,0,0,0,0,0,0,0,0,0,0,0,0,0,0,0,0,0,0,0,0,0,0,0,0,0,0,0,0,0,0,0.026,0.0259,0,0.0232,0.0232,0.0231,0.0214,0.0214,0.0214,0.0214,0.0214,0.0214,0.0214,0,0,0,0,0,0,0,0,0,0,0,0,0,0.0242,0.0243,0.026,0.0259,0.0259,0.0232,0.0232,0.0231,0.0214,0.0214,0.0214,0.0214,0.0214,0.0214,0.0214,0,0,0,0,0,0,0,0,0,0,0,0,0,0.0235,0.0243,0.026,0.0248,0.0246,0.0232,0.0232,0.0231,0.0214,0.0214,0.0214,0.0214,0.0214,0.0214,0.0214,0.0215,0,0,0.0214,0.0214,0,0,0,0,0,0,0,0,0.0236,0.0236,0.025,0.0249,0.0247,0.0227,0.0225,0.0227,0.0214,0.0226,0.0214,0.0214,0.0221,0.022,0.0214,0.0215,0.0215,0.0214,0.0214,0.0214,0.0214,0,0,0,0,0,0,0,0.0236,0.0237,0.0248,0.0249,0.0248,0.0224,0.0224,0.0225,0.0224,0.0225,0.0224,0.0221,0.022,0.0214,0.0214,0.0215,0.0214,0.0214,0.0214,0.0214,0.0214,0.0214,0,0,0,0,0,0,0.0244,0.0238,0.0249,0.0247,0.0242,0.0225,0.0224,0.0233,0.0224,0.0222,0.0222,0.0221,0.0214,0.0214,0.0214,0.0217,0.0214,0.0214,0.0214,0.0214,0.0214,0.0214,0,0,0,0,0,0,0.0244,0.0246,0.025,0.0241,0.024,0.0226,0.0235,0.0233,0.0227,0.0221,0.022,0.0219,0.0214,0.0214,0.0212,0.0217,0.0214,0.0214,0.0214,0.0214,0.0214,0.0221,0,0,0,0,0,0,0.0244,0.0246,0.0247,0.0242,0.0241,0.0247,0.0235,0.0232,0.0226,0.0225,0.0219,0.0218,0.0214,0.0212,0.0212,0.0217,0.0214,0.0214,0.0214,0.0214,0.0221,0.0221,0.0221,0,0,0,0,0,0.0243,0.024,0.0248,0.0248,0.0246,0.0248,0.0245,0.0233,0.0226,0.0227,0.0217,0.0219,0.0212,0.0212,0.0212,0.0217,0.0214,0.0214,0.0214,0.0221,0.0221,0.0221,0,0,0,0,0,0,0.0202,0.0238,0.0246,0.0246,0.0253,0.0245,0.0237,0.0235,0.0227,0.0224,0.0217,0.0216,0.0216,0.0215,0.0215,0.0216,0.0214,0.0214,0.0219,0.0219,0.0219,0.0212,0.0214,0,0,0,0,0,0.0203,0.0225,0.0244,0.0237,0.0249,0.0246,0.0241,0.0241,0.0236,0.0232,0.0229,0.0223,0.0215,0.0216,0.0212,0.0215,0.0227,0.0218,0.0218,0.0218,0.0212,0.0224,0.0225,0.0214,0.0214,0.0214,0,0,0.0175,0.0201,0.0205,0.0233,0.0235,0.0246,0.0243,0.0243,0.0242,0.0234,0.0229,0.0225,0.0215,0.0214,0.0214,0.0215,0.0234,0.0218,0.0219,0.0212,0.0224,0.0225,0.0226,0.0214,0.0214,0.0214,0,0,0.0139,0.0168,0.0181,0.0205,0.0228,0.0235,0.024,0.0249,0.0247,0.0248,0.0236,0.0234,0.0231,0.0223,0.0217,0.0219,0.0234,0.022,0.0218,0.023,0.0231,0.0232,0.0279,0.0284,0.0222,0.0222,0.0222,0,0.0092,0.0131,0.0175,0.0202,0.0211,0.0235,0.024,0.0246,0.0248,0.0239,0.025,0.0231,0.0234,0.0216,0.0218,0.022,0.0238,0.0218,0.0231,0.0232,0.0232,0.028,0.0285,0.0222,0.0222,0.0222,0.0222,0,0.0086,0.0115,0.0122,0.0175,0.0192,0.02,0.0231,0.0237,0.0243,0.0242,0.0234,0.0238,0.0222,0.023,0.0225,0.0225,0.0242,0.0229,0.0231,0.0234,0.0284,0.029,0.0223,0.0223,0.0223,0.0223,0,0,-0.0028,0.0091,0.0093,0.0122,0.0184,0.0189,0.0205,0.0212,0.0201,0.0223,0.0205,0.0211,0.0211,0.0204,0.0204,0.0221,0.0261,0.0228,0.0229,0.0278,0.0313,0.0296,0.03,0.0248,0.0248,0.0248,0.0357,0,-0.006,-0.0006,0.006,0.0083,0.0112,0.0157,0.0163,0.0178,0.0186,0.0181,0.0194,0.0182,0.0201,0.0193,0.0213,0.0236,0.027,0.0234,0.0299,0.0302,0.0287,0.0303,0.0344,0.044,0.0363,0.0364,0.0364,0,-0.0086,-0.0039,-0.0007,0.006,0.007,0.0081,0.0094,0.0106,0.0118,0.0126,0.0129,0.0136,0.0158,0.0175,0.024,0.0214,0.0265,0.0299,0.0303,0.0282,0.0292,0.0418,0.0453,0.0673,0.0373,0.0372,0.0371,0,-0.0164,-0.0093,-0.0068,-0.0041,0.0034,0.0035,0.0055,0.0075,0.0072,0.0087,0.0082,0.011,0.012,0.018,0.0248,0.0247,0.0327,0.0335,0.0377,0.0379,0.0422,0.0426,0.0675,0.0389,0.0389,0.0389,0.0388,0,-0.0208,-0.0188,-0.0103,-0.0084,-0.0083,-0.0017,-0.0031,-0.0006,0.0009,-0.0015,0.0043,0.0023,0.0118,0.0166,0.0244,0.0324,0.0329,0.0382,0.0396,0.0429,0.0431,0.0627,0.0697,0.0393,0.0392,0.0391,0.039,0,-0.0275,-0.0216,-0.0183,-0.0119,-0.0107,-0.0107,-0.0075,-0.0095,-0.0058,-0.0085,-0.0082,-0.0032,0.0016,0.0118,0.022,0.0309,0.0505,0.0423,0.0469,0.0484,0.0712,0.0777,0.0962,0.107,0.0502,0.0502,0.0502,0,-0.0291,-0.0276,-0.0219,-0.0217,-0.0187,-0.0175,-0.0183,-0.0139,-0.016,-0.0142,-0.0171,-0.0123,-0.0143,0.0029,0.0207,0.0363,0.0507,0.0519,0.0512,0.0739,0.0824,0.0872,0.0954,0.0605,0.0606,0.0606,0.0607,0,-0.032,-0.0304,-0.0277,-0.0278,-0.0282,-0.0289,-0.0293,-0.0323,-0.0298,-0.0334,-0.0381,-0.0395,-0.0212,-0.0034,0.021,0.0315,0.0677,0.0535,0.0766,0.0915,0.0989,0.1095,0.0549,0.0613,0.0613,0.0612,0.0612,0.0612,-0.0345,-0.0344,-0.0323,-0.0332,-0.035,-0.0406,-0.0451,-0.0498,-0.0567,-0.0659,-0.0609,-0.0604,-0.02,0.0118,0.029,0.0773,0.0703,0.0904,0.0967,0.0999,0.1091,0.0558,0.0623,0.0622,0.0622,0.0621,0.0621,0,-0.0363,-0.0366,-0.0379,-0.0399,-0.0457,-0.0452,-0.0528,-0.0603,-0.0748,-0.0815,-0.0902,-0.0493,-0.0124,0.0355,0.0996,0.1232,0.1324,0.1352,0.1487,0.1551,0.1098,0.1092,0.1267,0.1266,0.1266,0.1266,0.1266,0.1265,-0.037,-0.0385,-0.0396,-0.0487,-0.0525,-0.0629,-0.0696,-0.0829,-0.0882,-0.0928,-0.0757,-0.0643,0.0157,0.1107,0.1717,0.1756,0.2005,0.1931,0.2061,0.1817,0.1783,0.175,0.1769,0.2082,0.2082,0.2534,0.2538,0.2542]}],[{"header":{"parameterUnit":"m.s-1","parameterCategory":2,"la1":30.2991,"la2":30.254,"lo1":-89.0895,"lo2":-89.0444,"dy":0.0017,"dx":0.0017,"nx":28,"ny":28,"refTime":"2024-03-13T09:00:00:Z","depth":"2","parameterNumber":2,"parameterNumberName":"U-component_of_CURRENTS"},"data":[0,0,0,0,0,0,0,0,0,0,0,0,0,0,0,0,0,0,0,0,0,0,0,0,0,0,0,0,0,0,0,0,0,0,0,0,0,0,0,0,0,0,0,0,0,0,0,0,0,0,0,0,0,0,0,0,0,0,-0.1932,-0.1934,0,-0.2041,-0.2041,-0.2041,-0.202,-0.202,-0.2019,-0.2019,-0.2004,-0.2004,-0.2004,0,0,0,0,0,0,0,0,0,0,0,0,0,-0.168,-0.1684,-0.1931,-0.1934,-0.1937,-0.2041,-0.2041,-0.2041,-0.2021,-0.202,-0.2019,-0.2018,-0.2004,-0.2004,-0.2004,0,0,0,0,0,0,0,0,0,0,0,0,0,-0.1775,-0.1685,-0.1931,-0.195,-0.1954,-0.2041,-0.2041,-0.2041,-0.2021,-0.202,-0.2019,-0.2018,-0.2004,-0.2004,-0.2005,-0.2024,0,0,-0.2005,-0.2005,0,0,0,0,0,0,0,0,-0.177,-0.1782,-0.1945,-0.1949,-0.1954,-0.2029,-0.1948,-0.2034,-0.2021,-0.198,-0.2019,-0.2018,-0.2011,-0.2011,-0.2014,-0.2023,-0.2022,-0.2005,-0.2005,-0.2006,-0.2006,0,0,0,0,0,0,0,-0.1763,-0.1778,-0.196,-0.1948,-0.1954,-0.1946,-0.1957,-0.1963,-0.1985,-0.1983,-0.1986,-0.2022,-0.2011,-0.2014,-0.2013,-0.2022,-0.2005,-0.2005,-0.2006,-0.2006,-0.2069,-0.2071,0,0,0,0,0,0,-0.1783,-0.1772,-0.1956,-0.1964,-0.1875,-0.1952,-0.1964,-0.1994,-0.1988,-0.1992,-0.2023,-0.2021,-0.2014,-0.2013,-0.2013,-0.205,-0.2006,-0.2006,-0.2006,-0.2068,-0.207,-0.2071,0,0,0,0,0,0,-0.1777,-0.1798,-0.1952,-0.1882,-0.1903,-0.1959,-0.1992,-0.1997,-0.2001,-0.2022,-0.202,-0.2024,-0.2013,-0.2013,-0.2028,-0.2049,-0.2006,-0.2006,-0.2066,-0.2068,-0.207,-0.2115,0,0,0,0,0,0,-0.1769,-0.1795,-0.1791,-0.1884,-0.1909,-0.2006,-0.1995,-0.2,-0.2032,-0.203,-0.2023,-0.2021,-0.2012,-0.2028,-0.2028,-0.2048,-0.2006,-0.2064,-0.2067,-0.207,-0.2112,-0.2119,-0.2125,0,0,0,0,0,-0.1759,-0.1782,-0.179,-0.1812,-0.1912,-0.2009,-0.2018,-0.2045,-0.2033,-0.204,-0.204,-0.2021,-0.2046,-0.2029,-0.2029,-0.205,-0.2063,-0.2066,-0.207,-0.2109,-0.2117,-0.2125,0,0,0,0,0,0,-0.1679,-0.1787,-0.1796,-0.185,-0.1922,-0.2011,-0.2041,-0.2048,-0.2054,-0.2049,-0.2039,-0.2038,-0.2057,-0.2053,-0.2034,-0.2079,-0.2052,-0.2056,-0.2082,-0.209,-0.2097,-0.209,-0.2006,0,0,0,0,0,-0.1662,-0.1695,-0.1805,-0.1842,-0.1899,-0.1962,-0.1995,-0.2017,-0.2059,-0.206,-0.2058,-0.2062,-0.2074,-0.208,-0.2085,-0.2111,-0.2107,-0.2127,-0.2133,-0.2139,-0.2136,-0.2184,-0.2194,-0.2083,-0.2083,-0.2083,0,0,-0.1643,-0.1706,-0.1723,-0.1825,-0.1894,-0.1969,-0.1977,-0.2052,-0.2078,-0.2058,-0.2079,-0.208,-0.2085,-0.2112,-0.2122,-0.2111,-0.2163,-0.2143,-0.2148,-0.2141,-0.2188,-0.2199,-0.2209,-0.2085,-0.2085,-0.2084,0,0,-0.166,-0.1693,-0.1746,-0.1811,-0.1922,-0.1966,-0.1991,-0.2081,-0.2087,-0.2117,-0.2112,-0.2131,-0.2142,-0.2158,-0.2165,-0.2214,-0.2193,-0.2215,-0.2246,-0.2293,-0.2302,-0.2311,-0.2293,-0.23,-0.2223,-0.2223,-0.2223,0,-0.1633,-0.1714,-0.1773,-0.1856,-0.1914,-0.1971,-0.2047,-0.2072,-0.2131,-0.2147,-0.2127,-0.2172,-0.2166,-0.2218,-0.2225,-0.2228,-0.2229,-0.2213,-0.2301,-0.2309,-0.2317,-0.2298,-0.2304,-0.2226,-0.2225,-0.2225,-0.2225,0,-0.1689,-0.1766,-0.1822,-0.1928,-0.1981,-0.2064,-0.2135,-0.216,-0.2169,-0.2191,-0.2232,-0.2237,-0.2262,-0.2269,-0.2253,-0.2313,-0.2285,-0.23,-0.2278,-0.2331,-0.2307,-0.2313,-0.2229,-0.2228,-0.2228,-0.2227,0,0,-0.1665,-0.1822,-0.1846,-0.1911,-0.2027,-0.2087,-0.2142,-0.222,-0.225,-0.2276,-0.2315,-0.2337,-0.2335,-0.2343,-0.2343,-0.2377,-0.2411,-0.2355,-0.2357,-0.2331,-0.2473,-0.2343,-0.2337,-0.2448,-0.245,-0.2452,-0.2424,0,-0.1714,-0.1838,-0.1902,-0.2026,-0.2127,-0.2178,-0.2219,-0.227,-0.2299,-0.2337,-0.2361,-0.2385,-0.2367,-0.2372,-0.2411,-0.2409,-0.2434,-0.2414,-0.2431,-0.243,-0.2305,-0.2343,-0.2142,-0.2092,-0.2429,-0.243,-0.2431,0,-0.1787,-0.1863,-0.1967,-0.2103,-0.2147,-0.2182,-0.226,-0.2303,-0.2365,-0.2383,-0.2428,-0.2441,-0.2477,-0.2456,-0.2498,-0.2487,-0.2478,-0.2479,-0.2479,-0.2346,-0.2313,-0.2101,-0.2089,-0.2441,-0.244,-0.2439,-0.2438,0,-0.1762,-0.1933,-0.1992,-0.2039,-0.2171,-0.2195,-0.2235,-0.2304,-0.2341,-0.2399,-0.2426,-0.2487,-0.249,-0.2528,-0.2501,-0.2511,-0.2531,-0.2553,-0.2432,-0.242,-0.2244,-0.2213,-0.2597,-0.2597,-0.2597,-0.2597,-0.2597,0,-0.1809,-0.189,-0.1976,-0.2014,-0.2078,-0.2166,-0.2213,-0.2263,-0.2331,-0.2368,-0.2429,-0.2457,-0.2511,-0.2526,-0.252,-0.2464,-0.2549,-0.2428,-0.2416,-0.2249,-0.2221,-0.2526,-0.2518,-0.2596,-0.2596,-0.2596,-0.2596,0,-0.1802,-0.1864,-0.196,-0.2052,-0.2076,-0.2105,-0.2183,-0.2215,-0.2284,-0.2334,-0.2349,-0.243,-0.2442,-0.2474,-0.2502,-0.2454,-0.2438,-0.2401,-0.2158,-0.2118,-0.2291,-0.2286,-0.2278,-0.2274,-0.227,-0.2267,-0.2264,0,-0.1788,-0.1835,-0.1932,-0.195,-0.1985,-0.2037,-0.2063,-0.2161,-0.2201,-0.2303,-0.2318,-0.2362,-0.2372,-0.2346,-0.2245,-0.2195,-0.2342,-0.2003,-0.1997,-0.2274,-0.2264,-0.2265,-0.2265,-0.1771,-0.1764,-0.1759,-0.1755,0,-0.1754,-0.1784,-0.1829,-0.1872,-0.1898,-0.1957,-0.2005,-0.2055,-0.216,-0.2187,-0.224,-0.2259,-0.2203,-0.2052,-0.1957,-0.1904,-0.1996,-0.1891,-0.2269,-0.1878,-0.1793,-0.1784,-0.1802,-0.1707,-0.1712,-0.1716,-0.1718,-0.172,-0.1672,-0.1694,-0.1727,-0.1773,-0.1809,-0.1856,-0.1874,-0.1919,-0.1958,-0.197,-0.2066,-0.2006,-0.1945,-0.17,-0.1604,-0.1517,-0.1655,-0.162,-0.1638,-0.1662,-0.1604,-0.1516,-0.1364,-0.1367,-0.1369,-0.1371,-0.1373,0,-0.1537,-0.1579,-0.1618,-0.1668,-0.168,-0.1728,-0.1809,-0.1755,-0.173,-0.1769,-0.1737,-0.1524,-0.1406,-0.1421,-0.1187,-0.1111,-0.1108,-0.1111,-0.1137,-0.1181,-0.1221,-0.1145,-0.0782,-0.0781,-0.078,-0.0779,0,0,-0.1455,-0.1458,-0.1513,-0.1512,-0.154,-0.1518,-0.1544,-0.1417,-0.141,-0.1323,-0.1301,-0.1316,-0.1378,-0.1088,-0.0979,-0.0889,-0.1041,-0.0831,-0.1293,-0.137,-0.141,-0.1484,-0.141,0,0,0,0,0]},{"header":{"parameterUnit":"m.s-1","parameterCategory":2,"la1":30.2991,"la2":30.254,"lo1":-89.0895,"lo2":-89.0444,"dy":0.0017,"dx":0.0017,"nx":28,"ny":28,"refTime":"2024-03-13T09:00:00:Z","depth":"2","parameterNumber":3,"parameterNumberName":"V-component_of_CURRENTS"},"data":[0,0,0,0,0,0,0,0,0,0,0,0,0,0,0,0,0,0,0,0,0,0,0,0,0,0,0,0,0,0,0,0,0,0,0,0,0,0,0,0,0,0,0,0,0,0,0,0,0,0,0,0,0,0,0,0,0,0,0.0186,0.019,0,0.0407,0.0409,0.041,0.0464,0.0464,0.0463,0.0463,0.0544,0.0546,0.0548,0,0,0,0,0,0,0,0,0,0,0,0,0,-0.0045,-0.0043,0.0186,0.019,0.0194,0.0407,0.0409,0.041,0.0464,0.0463,0.0463,0.0463,0.0543,0.0546,0.0549,0,0,0,0,0,0,0,0,0,0,0,0,0,0.009,-0.0043,0.0185,0.0256,0.0266,0.0407,0.0409,0.0411,0.0464,0.0463,0.0463,0.0463,0.0542,0.0545,0.0549,0.0576,0,0,0.056,0.0561,0,0,0,0,0,0,0,0,0.0082,0.0096,0.0242,0.0252,0.0263,0.042,0.0358,0.0464,0.0464,0.0374,0.0463,0.0463,0.0499,0.0506,0.053,0.058,0.0584,0.056,0.0562,0.0563,0.0564,0,0,0,0,0,0,0,0.0072,0.0089,0.0259,0.0247,0.026,0.0329,0.0344,0.0379,0.0422,0.0382,0.039,0.0437,0.0501,0.0527,0.0532,0.0585,0.056,0.0563,0.0565,0.0566,0.0639,0.0639,0,0,0,0,0,0,0.0066,0.0079,0.0253,0.0268,0.0186,0.0333,0.035,0.0358,0.0425,0.044,0.0437,0.0439,0.0521,0.0528,0.0535,0.0527,0.0563,0.0567,0.0569,0.064,0.0639,0.0639,0,0,0,0,0,0,0.0059,0.0078,0.0244,0.0192,0.0219,0.0338,0.0346,0.0363,0.0381,0.0471,0.048,0.0438,0.0521,0.053,0.055,0.0532,0.0568,0.0571,0.064,0.064,0.0639,0.0539,0,0,0,0,0,0,0.0051,0.0073,0.0062,0.019,0.0223,0.0303,0.0349,0.0368,0.0418,0.0422,0.0475,0.0483,0.0521,0.0545,0.0554,0.0537,0.0574,0.064,0.064,0.0639,0.0542,0.0535,0.0529,0,0,0,0,0,0.0041,0.0028,0.0059,0.0081,0.0207,0.0304,0.0323,0.04,0.0418,0.0414,0.0454,0.0481,0.055,0.0547,0.0558,0.0542,0.064,0.064,0.0639,0.0545,0.0537,0.0529,0,0,0,0,0,0,-0.006,0.0038,0.0073,0.0095,0.0185,0.0317,0.0343,0.039,0.0422,0.0417,0.0478,0.0489,0.0502,0.0539,0.0535,0.0565,0.06,0.0602,0.0525,0.0517,0.0511,0.0493,0.0577,0,0,0,0,0,-0.0087,-0.0085,0.004,0.006,0.0103,0.0216,0.0263,0.0311,0.0378,0.0392,0.0431,0.0474,0.0513,0.0525,0.0563,0.0576,0.0601,0.0575,0.0568,0.0562,0.0557,0.0589,0.0584,0.0638,0.0638,0.0638,0,0,-0.0106,-0.0056,-0.0047,0.0037,0.0117,0.016,0.0238,0.0301,0.0321,0.0394,0.0404,0.045,0.0513,0.0528,0.0537,0.0552,0.0555,0.0562,0.0556,0.0554,0.0588,0.0583,0.0578,0.0638,0.0638,0.0638,0,0,-0.0144,-0.0109,-0.0117,-0.0057,0.0047,0.0114,0.0124,0.0232,0.0258,0.0288,0.0346,0.0381,0.0431,0.0477,0.0508,0.049,0.0521,0.0497,0.0445,0.0475,0.047,0.0467,0.0463,0.046,0.0491,0.0491,0.0491,0,-0.0169,-0.0164,-0.0098,-0.0081,-0.0031,0.0082,0.0099,0.0148,0.0237,0.0253,0.0269,0.0359,0.0411,0.0449,0.0445,0.0474,0.0481,0.0464,0.0464,0.0461,0.0459,0.0457,0.0454,0.0486,0.0486,0.0487,0.0487,0,-0.0204,-0.0195,-0.0183,-0.0142,-0.0098,-0.0055,0.0033,0.0055,0.0099,0.0152,0.0188,0.0264,0.0317,0.0341,0.0388,0.0403,0.0407,0.045,0.0476,0.0447,0.0447,0.0446,0.0479,0.0481,0.0482,0.0483,0,0,-0.0242,-0.022,-0.0213,-0.0207,-0.0127,-0.0088,-0.0069,-0.0007,0.0004,0.0064,0.0076,0.0159,0.0202,0.0241,0.0306,0.0338,0.0329,0.0375,0.0379,0.0356,0.0359,0.0435,0.0442,0.0363,0.0363,0.0363,0.0353,0,-0.0271,-0.0298,-0.0269,-0.0261,-0.0246,-0.0167,-0.016,-0.0108,-0.0055,-0.0028,0.0057,0.0093,0.0164,0.0185,0.0226,0.031,0.0327,0.0325,0.0405,0.0407,0.0466,0.0445,0.0401,0.0396,0.0353,0.0353,0.0353,0,-0.0296,-0.0312,-0.0341,-0.0327,-0.0312,-0.0301,-0.0262,-0.024,-0.0175,-0.0145,-0.0091,-0.0022,0.0039,0.0103,0.0204,0.0193,0.0261,0.0324,0.0326,0.0434,0.0484,0.0428,0.0398,0.0353,0.0353,0.0353,0.0353,0,-0.0353,-0.0348,-0.0388,-0.0375,-0.035,-0.035,-0.0331,-0.0278,-0.0262,-0.0213,-0.0195,-0.0122,-0.0073,0.0014,0.0149,0.0167,0.025,0.0299,0.0423,0.0427,0.0429,0.0435,0.036,0.036,0.036,0.036,0.036,0,-0.0387,-0.0398,-0.0418,-0.0428,-0.0457,-0.0417,-0.043,-0.0399,-0.036,-0.0339,-0.0256,-0.0215,-0.009,-0.0012,0.0097,0.0251,0.0209,0.0406,0.0438,0.0393,0.0395,0.0402,0.0407,0.036,0.036,0.036,0.036,0,-0.0422,-0.0439,-0.0471,-0.0483,-0.0484,-0.0503,-0.0487,-0.0494,-0.0446,-0.0414,-0.0402,-0.0297,-0.0193,-0.0074,0.0067,0.0202,0.0329,0.0392,0.0315,0.0342,0.0489,0.0489,0.0526,0.0529,0.0531,0.0533,0.0534,0,-0.0443,-0.0474,-0.0524,-0.0555,-0.0554,-0.0572,-0.0587,-0.0547,-0.0537,-0.0441,-0.0429,-0.0327,-0.0223,-0.0012,0.0167,0.0332,0.0356,0.0448,0.0513,0.0483,0.051,0.0506,0.0503,0.0445,0.0446,0.0447,0.0447,0,-0.0471,-0.0502,-0.0546,-0.0624,-0.0652,-0.0679,-0.068,-0.0681,-0.0616,-0.0563,-0.0474,-0.0382,-0.0169,0.0019,0.0251,0.0361,0.0419,0.0474,0.0444,0.0439,0.0416,0.044,0.0437,0.0453,0.0452,0.0452,0.0452,0.0451,-0.0489,-0.054,-0.0622,-0.0689,-0.0735,-0.0774,-0.0801,-0.0773,-0.0745,-0.0653,-0.0532,-0.0374,-0.0157,0.0159,0.0332,0.0485,0.0501,0.0582,0.0576,0.057,0.0591,0.0577,0.0645,0.0645,0.0646,0.0646,0.0647,0,-0.0507,-0.0585,-0.0673,-0.0768,-0.0848,-0.0839,-0.086,-0.0863,-0.0831,-0.0704,-0.0595,-0.0331,-0.0064,0.0141,0.0395,0.0601,0.0558,0.0638,0.0543,0.0537,0.0531,0.0548,0.0591,0.0591,0.0592,0.0592,0,0,-0.0523,-0.0624,-0.0693,-0.0847,-0.091,-0.0989,-0.1004,-0.0963,-0.089,-0.078,-0.0639,-0.0416,-0.0094,0.0094,0.0312,0.0448,0.0437,0.0456,0.0479,0.0332,0.0324,0.048,0.0497,0,0,0,0,0]}],[{"header":{"parameterUnit":"m.s-1","parameterCategory":2,"la1":30.2991,"la2":30.254,"lo1":-89.0895,"lo2":-89.0444,"dy":0.0017,"dx":0.0017,"nx":28,"ny":28,"refTime":"2024-03-13T09:00:00:Z","depth":"4","parameterNumber":2,"parameterNumberName":"U-component_of_CURRENTS"},"data":[0,0,0,0,0,0,0,0,0,0,0,0,0,0,0,0,0,0,0,0,0,0,0,0,0,0,0,0,0,0,0,0,0,0,0,0,0,0,0,0,0,0,0,0,0,0,0,0,0,0,0,0,0,0,0,0,0,0,-0.1108,-0.1108,0,-0.1083,-0.1082,-0.1082,-0.106,-0.106,-0.106,-0.106,-0.1094,-0.1095,-0.1096,0,0,0,0,0,0,0,0,0,0,0,0,0,-0.1091,-0.1092,-0.1108,-0.1108,-0.1108,-0.1083,-0.1082,-0.1082,-0.106,-0.106,-0.106,-0.106,-0.1093,-0.1095,-0.1096,0,0,0,0,0,0,0,0,0,0,0,0,0,-0.1084,-0.1092,-0.1108,-0.1095,-0.1094,-0.1083,-0.1082,-0.1082,-0.106,-0.106,-0.106,-0.106,-0.1093,-0.1095,-0.1096,-0.1109,0,0,-0.1101,-0.1101,0,0,0,0,0,0,0,0,-0.1085,-0.1085,-0.1097,-0.1096,-0.1095,-0.1076,-0.1088,-0.1094,-0.106,-0.1072,-0.106,-0.106,-0.1094,-0.1096,-0.1088,-0.111,-0.1112,-0.1101,-0.1102,-0.1102,-0.1103,0,0,0,0,0,0,0,-0.1085,-0.1085,-0.1097,-0.1097,-0.1095,-0.1074,-0.1073,-0.1089,-0.1084,-0.1071,-0.1069,-0.1069,-0.1094,-0.1087,-0.1089,-0.1112,-0.1101,-0.1102,-0.1103,-0.1104,-0.1191,-0.1193,0,0,0,0,0,0,-0.1094,-0.1086,-0.1098,-0.1096,-0.1091,-0.1075,-0.1074,-0.1081,-0.1083,-0.1083,-0.1069,-0.1068,-0.1084,-0.1088,-0.1091,-0.1145,-0.1102,-0.1104,-0.1105,-0.119,-0.1192,-0.1193,0,0,0,0,0,0,-0.1094,-0.1095,-0.1099,-0.1091,-0.109,-0.1076,-0.1083,-0.108,-0.1084,-0.1081,-0.1082,-0.1077,-0.1084,-0.1088,-0.1117,-0.1144,-0.1104,-0.1106,-0.1188,-0.1191,-0.1192,-0.1229,0,0,0,0,0,0,-0.1093,-0.1096,-0.1111,-0.1092,-0.1091,-0.1102,-0.1084,-0.108,-0.1084,-0.1083,-0.1089,-0.109,-0.1085,-0.1114,-0.1118,-0.1146,-0.1107,-0.1187,-0.1189,-0.1192,-0.1226,-0.1232,-0.1237,0,0,0,0,0,-0.1093,-0.1108,-0.1112,-0.1113,-0.111,-0.1103,-0.11,-0.1088,-0.1085,-0.109,-0.1097,-0.1091,-0.1134,-0.1117,-0.1121,-0.115,-0.1185,-0.1189,-0.1192,-0.1223,-0.123,-0.1237,0,0,0,0,0,0,-0.1095,-0.1106,-0.111,-0.1125,-0.1122,-0.11,-0.1103,-0.1098,-0.1105,-0.1109,-0.1106,-0.1109,-0.1144,-0.1145,-0.1126,-0.1184,-0.1161,-0.1165,-0.1183,-0.119,-0.1196,-0.1207,-0.1108,0,0,0,0,0,-0.1108,-0.1132,-0.1126,-0.1139,-0.1139,-0.1127,-0.1125,-0.1118,-0.1117,-0.1119,-0.1127,-0.1141,-0.1159,-0.1173,-0.1185,-0.1218,-0.1216,-0.1241,-0.1247,-0.1252,-0.1265,-0.1284,-0.1293,-0.1204,-0.1204,-0.1204,0,0,-0.1113,-0.1122,-0.1135,-0.1144,-0.1139,-0.1141,-0.1125,-0.1127,-0.1137,-0.1125,-0.1151,-0.1161,-0.1172,-0.1204,-0.1221,-0.121,-0.1274,-0.1256,-0.126,-0.127,-0.1288,-0.1297,-0.1305,-0.1206,-0.1206,-0.1205,0,0,-0.1122,-0.1143,-0.1159,-0.1162,-0.1165,-0.116,-0.1166,-0.1159,-0.1166,-0.1189,-0.1188,-0.1217,-0.1239,-0.1255,-0.1265,-0.1314,-0.1302,-0.1321,-0.1362,-0.138,-0.1387,-0.1394,-0.139,-0.1396,-0.1326,-0.1326,-0.1326,0,-0.1123,-0.1147,-0.116,-0.1169,-0.1173,-0.1172,-0.1178,-0.1187,-0.1194,-0.1211,-0.1204,-0.1254,-0.1264,-0.131,-0.1328,-0.1327,-0.1328,-0.1331,-0.1386,-0.1393,-0.1399,-0.1394,-0.14,-0.1328,-0.1328,-0.1328,-0.1327,0,-0.1135,-0.1159,-0.1165,-0.1186,-0.1194,-0.1199,-0.1211,-0.1232,-0.1244,-0.1253,-0.1302,-0.1317,-0.1344,-0.1359,-0.136,-0.1416,-0.1398,-0.1387,-0.1366,-0.141,-0.1402,-0.1407,-0.1331,-0.133,-0.133,-0.1329,0,0,-0.1108,-0.1165,-0.1167,-0.1184,-0.1205,-0.1206,-0.1242,-0.1268,-0.1291,-0.1321,-0.1353,-0.1402,-0.1412,-0.1426,-0.1436,-0.1466,-0.1504,-0.1452,-0.1452,-0.1443,-0.1534,-0.1406,-0.14,-0.1502,-0.1504,-0.1505,-0.1506,0,-0.1105,-0.1143,-0.1169,-0.1194,-0.1206,-0.1232,-0.1261,-0.1292,-0.1319,-0.1353,-0.1393,-0.1429,-0.1435,-0.1455,-0.1486,-0.15,-0.1523,-0.1504,-0.1499,-0.1498,-0.1375,-0.1404,-0.151,-0.151,-0.1511,-0.1512,-0.1513,0,-0.1089,-0.1123,-0.116,-0.1207,-0.1213,-0.1234,-0.128,-0.1305,-0.1361,-0.1385,-0.1433,-0.1458,-0.1518,-0.1509,-0.1561,-0.1548,-0.1551,-0.1559,-0.1558,-0.1434,-0.1382,-0.1461,-0.1523,-0.1522,-0.1521,-0.152,-0.152,0,-0.1052,-0.1104,-0.1143,-0.1158,-0.1214,-0.1241,-0.1267,-0.1319,-0.1338,-0.1411,-0.143,-0.1498,-0.152,-0.1557,-0.1571,-0.1575,-0.1607,-0.1603,-0.1492,-0.1482,-0.158,-0.1573,-0.1641,-0.1641,-0.1641,-0.1641,-0.1641,0,-0.102,-0.1044,-0.1136,-0.1151,-0.1187,-0.1229,-0.1263,-0.1302,-0.1348,-0.1362,-0.1442,-0.1456,-0.1536,-0.1557,-0.1578,-0.1535,-0.1605,-0.1503,-0.1478,-0.1593,-0.1588,-0.1582,-0.1576,-0.1641,-0.1641,-0.1641,-0.1641,0,-0.0955,-0.1022,-0.1065,-0.1147,-0.1171,-0.1192,-0.1243,-0.1258,-0.1318,-0.1338,-0.1363,-0.143,-0.145,-0.1499,-0.1543,-0.1512,-0.151,-0.1478,-0.1585,-0.1565,-0.1375,-0.1371,-0.1362,-0.1358,-0.1354,-0.1351,-0.1348,0,-0.092,-0.0945,-0.1051,-0.1076,-0.1113,-0.1156,-0.1173,-0.1235,-0.124,-0.1302,-0.1294,-0.1342,-0.1376,-0.1335,-0.1398,-0.141,-0.1401,-0.1396,-0.1409,-0.1372,-0.1349,-0.1351,-0.1351,-0.1342,-0.1341,-0.134,-0.1339,0,-0.0845,-0.0904,-0.0948,-0.1011,-0.1046,-0.1069,-0.1099,-0.1095,-0.115,-0.1217,-0.1204,-0.1222,-0.1222,-0.1253,-0.1256,-0.1272,-0.1404,-0.1358,-0.1366,-0.1378,-0.1348,-0.1329,-0.1334,-0.1326,-0.1328,-0.133,-0.133,0,-0.0788,-0.0807,-0.0883,-0.0922,-0.0966,-0.0963,-0.0997,-0.1,-0.1015,-0.1086,-0.1076,-0.1133,-0.1194,-0.1178,-0.1188,-0.1181,-0.1179,-0.1173,-0.1191,-0.1206,-0.1155,-0.1094,-0.0975,0,0,0,0,0,-0.072,-0.0739,-0.0777,-0.0821,-0.0862,-0.088,-0.093,-0.0964,-0.1025,-0.0983,-0.1025,-0.1026,-0.1032,-0.1067,-0.103,-0.1117,-0.1183,-0.107,-0.1186,-0.1255,-0.127,-0.1224,0,0,0,0,0,0,-0.0683,-0.0716,-0.0747,-0.0723,-0.0727,-0.0748,-0.0778,-0.0826,-0.0811,-0.0887,-0.0895,-0.096,-0.098,-0.1027,-0.1003,-0.1013,-0.1067,-0.1109,-0.1107,-0.1247,-0.126,-0.1272,-0.123,0,0,0,0,0]},{"header":{"parameterUnit":"m.s-1","parameterCategory":2,"la1":30.2991,"la2":30.254,"lo1":-89.0895,"lo2":-89.0444,"dy":0.0017,"dx":0.0017,"nx":28,"ny":28,"refTime":"2024-03-13T09:00:00:Z","depth":"4","parameterNumber":3,"parameterNumberName":"V-component_of_CURRENTS"},"data":[0,0,0,0,0,0,0,0,0,0,0,0,0,0,0,0,0,0,0,0,0,0,0,0,0,0,0,0,0,0,0,0,0,0,0,0,0,0,0,0,0,0,0,0,0,0,0,0,0,0,0,0,0,0,0,0,0,0,-0.0064,-0.0064,0,-0.0025,-0.0025,-0.0025,0.0016,0.0016,0.0017,0.0017,0.0097,0.0098,0.01,0,0,0,0,0,0,0,0,0,0,0,0,0,-0.0093,-0.0093,-0.0064,-0.0064,-0.0063,-0.0026,-0.0025,-0.0025,0.0015,0.0016,0.0017,0.0018,0.0096,0.0098,0.01,0,0,0,0,0,0,0,0,0,0,0,0,0,-0.0071,-0.0093,-0.0064,-0.0038,-0.0036,-0.0026,-0.0025,-0.0024,0.0015,0.0016,0.0017,0.0018,0.0095,0.0098,0.01,0.0096,0,0,0.0107,0.0108,0,0,0,0,0,0,0,0,-0.0072,-0.007,-0.0043,-0.004,-0.0037,-0.0008,-0.0006,0.0018,0.0015,-0.0005,0.0017,0.0018,0.0065,0.007,0.0074,0.01,0.0104,0.0107,0.0109,0.011,0.011,0,0,0,0,0,0,0,-0.0074,-0.0071,-0.0049,-0.0042,-0.0039,-0.0025,-0.0021,-0.0001,0.0025,-0.0003,0.0,0.0005,0.0067,0.0071,0.0076,0.0105,0.0107,0.0109,0.0111,0.0112,0.0145,0.0145,0,0,0,0,0,0,-0.0079,-0.0073,-0.0051,-0.0048,-0.0052,-0.0025,-0.0021,-0.0019,0.0024,0.0031,0.0004,0.0007,0.0067,0.0073,0.0079,0.0077,0.011,0.0112,0.0113,0.0146,0.0145,0.0145,0,0,0,0,0,0,-0.008,-0.0078,-0.0052,-0.0059,-0.0055,-0.0026,-0.0024,-0.0019,-0.0012,0.0029,0.0037,0.0006,0.0068,0.0076,0.0091,0.0081,0.0113,0.0115,0.0146,0.0146,0.0145,0.0073,0,0,0,0,0,0,-0.0081,-0.0078,-0.0084,-0.006,-0.0054,-0.0056,-0.0025,-0.0019,-0.001,-0.0006,0.0033,0.0041,0.0069,0.0087,0.0093,0.0084,0.0117,0.0147,0.0146,0.0145,0.0076,0.007,0.0065,0,0,0,0,0,-0.0082,-0.0096,-0.0084,-0.0082,-0.0061,-0.0057,-0.0054,-0.003,-0.0011,-0.0019,0.0011,0.004,0.0086,0.0088,0.0096,0.0087,0.0147,0.0146,0.0145,0.0079,0.0071,0.0065,0,0,0,0,0,0,-0.0108,-0.0093,-0.0079,-0.0086,-0.0076,-0.005,-0.0054,-0.0035,-0.0019,-0.0012,0.0031,0.004,0.005,0.0077,0.0079,0.0095,0.0123,0.0123,0.007,0.0063,0.0058,0.0044,0.0119,0,0,0,0,0,-0.0118,-0.0124,-0.0104,-0.0109,-0.0107,-0.0081,-0.0076,-0.006,-0.004,-0.0031,-0.0003,0.0028,0.005,0.0063,0.0085,0.0091,0.0122,0.0092,0.0086,0.0081,0.0075,0.0118,0.0116,0.0141,0.0141,0.0141,0,0,-0.0128,-0.012,-0.0123,-0.0116,-0.0104,-0.0114,-0.0076,-0.0074,-0.008,-0.0025,-0.0024,0.0008,0.0047,0.0053,0.006,0.0075,0.0088,0.0079,0.0075,0.0072,0.0117,0.0114,0.0112,0.014,0.014,0.014,0,0,-0.0157,-0.0146,-0.0163,-0.0162,-0.0152,-0.0139,-0.0141,-0.0121,-0.0109,-0.0107,-0.0065,-0.0043,-0.0014,0.0012,0.003,0.0006,0.0056,0.0018,-0.0021,0.002,0.0019,0.0018,0.0042,0.0044,0.0016,0.0016,0.0016,0,-0.0169,-0.0186,-0.0168,-0.0186,-0.0189,-0.0155,-0.0176,-0.0165,-0.0142,-0.0137,-0.0117,-0.0071,-0.0035,-0.0022,-0.0026,-0.0008,0.0022,-0.0,0.0013,0.0012,0.0013,0.0038,0.0041,0.0012,0.0013,0.0013,0.0013,0,-0.0212,-0.0226,-0.0237,-0.0249,-0.0253,-0.0264,-0.0248,-0.0249,-0.0229,-0.0211,-0.0195,-0.0148,-0.012,-0.0102,-0.007,-0.0053,-0.0031,-0.0001,0.0028,0.0006,0.0034,0.0038,0.0007,0.0008,0.0009,0.001,0,0,-0.0235,-0.0262,-0.0266,-0.0282,-0.0286,-0.0294,-0.031,-0.0312,-0.0322,-0.029,-0.0298,-0.0249,-0.0213,-0.0191,-0.0143,-0.0103,-0.0076,-0.0054,-0.005,-0.0034,0.0008,0.002,0.0026,-0.0037,-0.0036,-0.0036,0.0023,0,-0.0272,-0.0319,-0.0323,-0.0366,-0.0387,-0.0374,-0.0395,-0.0392,-0.0378,-0.0379,-0.0323,-0.0309,-0.0249,-0.0234,-0.0187,-0.0103,-0.0065,-0.0095,0.0032,0.0035,0.0045,0.0031,-0.0034,0.0026,0.0028,0.0028,0.0029,0,-0.0313,-0.0339,-0.0389,-0.0425,-0.0434,-0.0457,-0.0481,-0.0492,-0.0483,-0.0471,-0.0444,-0.0401,-0.0348,-0.0291,-0.0166,-0.0185,-0.0097,-0.0029,-0.0024,0.0015,0.0055,0.0058,0.0037,0.0037,0.0036,0.0035,0.0035,0,-0.0339,-0.0385,-0.0427,-0.0439,-0.0475,-0.0497,-0.0512,-0.0519,-0.0532,-0.0526,-0.0531,-0.0466,-0.043,-0.0318,-0.0176,-0.0168,-0.0033,-0.0006,0.0083,0.0085,0.0089,0.0089,0.0083,0.0083,0.0083,0.0083,0.0083,0,-0.0374,-0.0409,-0.0443,-0.0467,-0.052,-0.0529,-0.0577,-0.0586,-0.0598,-0.0612,-0.0572,-0.0553,-0.0429,-0.0338,-0.0206,-0.0052,-0.0054,0.007,0.0102,0.0055,0.0052,0.0091,0.0091,0.0085,0.0084,0.0084,0.0084,0,-0.0398,-0.042,-0.0473,-0.0518,-0.0536,-0.0571,-0.0619,-0.0649,-0.0654,-0.0673,-0.0673,-0.0615,-0.049,-0.0362,-0.0183,-0.0093,0.0054,0.0114,0.0035,0.0062,0.0147,0.0142,0.0199,0.02,0.0201,0.0202,0.0202,0,-0.0415,-0.0444,-0.0507,-0.0541,-0.0565,-0.0615,-0.0652,-0.0674,-0.0695,-0.0691,-0.0692,-0.0607,-0.0544,-0.0293,-0.0157,0.0054,0.0101,0.0147,0.016,0.0134,0.0159,0.0154,0.0149,0.0204,0.0204,0.0204,0.0204,0,-0.0445,-0.0467,-0.0507,-0.0576,-0.0623,-0.0678,-0.072,-0.0733,-0.0748,-0.0759,-0.0682,-0.0575,-0.0443,-0.0268,-0.0117,0.0047,0.0094,0.0156,0.0155,0.0169,0.014,0.0163,0.0157,0.0207,0.0207,0.0206,0.0206,0,-0.046,-0.0495,-0.0546,-0.0604,-0.0669,-0.0716,-0.0737,-0.0735,-0.0746,-0.0722,-0.0685,-0.0551,-0.0478,-0.0269,-0.0115,0.0021,0.0065,0.0102,0.0105,0.0104,0.0061,0.001,0.006,0,0,0,0,0,-0.0465,-0.0506,-0.0569,-0.0635,-0.0701,-0.0734,-0.0775,-0.0783,-0.0785,-0.0724,-0.0701,-0.0563,-0.035,-0.0259,-0.0113,-0.0109,0.007,0.0063,0.0111,0.0222,0.0219,0.0187,0,0,0,0,0,0,-0.0473,-0.0529,-0.0567,-0.0648,-0.0693,-0.0763,-0.0784,-0.0785,-0.0734,-0.0711,-0.0581,-0.0536,-0.0314,-0.0423,-0.0111,-0.0074,-0.0027,0.016,0.0163,0.0224,0.0221,0.0218,0.0184,0,0,0,0,0]}]]